Strona główna
METAR-TAF:

METAR-TAF

Lotnisko :

Montauk, Nowy Jork, Stany Zjednoczone

Szerokość geograficzna: 41-04-23N, Długość geograficzna: 071-55-24W, wysokość: 2 m

Aktualna obserwacja pogody

Raport powstał 40 minut temu, godzina 09:54 UTC
Wiatr 10 kt od południe w porywach dochodzący do 22 kt
Temperatura 9°C
Wilgotność 93%
Ciśnienie 1011 hPa

METAR: KMTP 240954Z AUTO 19010G22KT 09/08 A2985 RMK AO1 SLP107 T00940083

czas: 05:34 (10:34 UTC)


TAF: brakujący

Obserwacja i prognoza pogody dla ponad 4000 lotnisk (raport METAR i TAF).

Dostępne stacje oznaczono żółtymi i czerwonymi punktami na mapie.

Najedź kursorem aby zobaczyć nazwę stacji.

Kliknij aby zobaczyć obserwacje i prognozy pogody.

Aby zmienić mapę: kliknij na zielony przycisk z czarnym krzyżykiem, aby powiększyć; na zielony przycisk z myślnikiem, aby pomniejszyć; na zielone strzałki, aby przejść do map sąsiednich.


METAR-TAF: